Location: Ingoldesthorpe
(52.8667°N, 0.5167°E)
Time: 19:25:38
(UTC+00:00)

Helios 1A - Pass Details

Date: 19 May 2025
Orbit: 544 x 570 km, 98.3° (Epoch: 03 June)

Event Time Altitude Azimuth Distance (km) Brightness Sun altitude
Rises 20:41:06 0° 15° (NNE) 2,791 6.9 -6.0°
Reaches altitude 10° 20:43:16 10° 17° (NNE) 1,886 6.0 -6.3°
Maximum altitude 20:47:21 82° 104° (ESE) 581 2.9 -6.7°
Drops below altitude 10° 20:51:23 10° 194° (SSW) 1,859 5.2 -7.1°
Sets 20:53:31 0° 195° (SSW) 2,747 6.1 -7.3°
